Location: Unspecified
(43.4680°N, 87.1740°E)
Time: 20:13:55
(UTC+00:00)

Cosmos 1626 - Pass Details

Date: 17 January 2020
Orbit: 493 x 494 km, 82.5° (Epoch: 16 February)

Event Time Altitude Azimuth Distance (km) Brightness Sun altitude
Rises 13:04:08 0° 212° (SSW) 2,564 6.3 -21.7°
Reaches altitude 10° 13:06:27 10° 225° (SW) 1,687 5.5 -22.1°
Maximum altitude 13:09:38 27° 285° (WNW) 973 4.2 -22.7°
Drops below altitude 10° 13:12:52 10° 345° (NNW) 1,701 4.9 -23.3°
Enters shadow 13:13:41 - 351° (N) 1,994 5.2 -23.4°
